{"data":{"norad_id":51994,"intl_designator":"2022-025AQ","name":"STARLINK-3647","alt_names":[],"object_type":"PAYLOAD","status":"ACTIVE","operator":null,"country":"US","launch_date":"2022-03-09","launch_site_code":"AFETR","launch_vehicle":null,"mission":null,"orbit_class":"UNKNOWN","rcs_meters":null,"size_class":null,"mass_kg":null,"dimensions":null,"purposes":["comms"],"wikipedia_slug":null,"has_3d_model":false,"image_url":null,"decayed_at":null,"tle_current":{"epoch":"2026-09-20T03:36:41.453856Z","epoch_age_seconds":86392,"freshness":"FRESH","line1":"1 51994U 22025AQ  26263.15047979  .00000829  00000+0  35670-4 0  9993","line2":"2 51994  53.1611 215.0216 0001402  89.9448 270.1716 15.34393415250428","mean_motion":15.34393415,"eccentricity":0.0001402,"inclination_deg":53.1611,"raan_deg":215.0216,"arg_perigee_deg":89.9448,"mean_anomaly_deg":270.1716,"bstar":3.567e-5,"rev_number":25042,"period_min":93.848160838203,"perigee_km":461.76372373914,"apogee_km":463.68190083051,"semimajor_km":6840.8598122848,"source":"CELESTRAK","updated_at":"2026-09-20T09:00:39.982146Z"}}}